COSMOS 2463 [+] (36519 NORAD) Tracking and Keplerian Element Data

This shows tracking and keplerian element data for the satellite.

Feedback or suggestion? Click here.




ElementValue
Catalog36519
NameCOSMOS 2463 [+]
Epoch Orbit41171
Epoch Day198.96032736
Epoch Year2018
RAAN213.4637
Inclination82.9585
Eccentricity0.0035084
Argument of Perigee229.9289
Mean Anonmoly129.8787
Mean Motion13.71426483
Decay Rate6.2E-07
L11 36519U 10017A 18198.96032736 .00000062 00000-0 52430-4 0 9992
L22 36519 82.9585 213.4637 0035084 229.9289 129.8787 13.71426483411715

Live tracking and technical data element details for COSMOS 2463 [+] (NORAD 36519). COSMOS 2463 [+] can be tracked NOW for your location showing map with azimuth and elevation plus other details from your city location.

Track the satellite on the map from your city or location and see movement details for azimuth, elevation, latitude, longitude, range, height, and movement on the map or in text.







IsCatalogInMostPopularTable: catalog: 36519, numindb: 33
Update: records affected: 1



GetName: 36519 COSMOS 2463 [+]

Hit Count: updated at: Thu, 19 Jul 2018 21:23:19 GMT